Погода в Первомайском

Россия / Волгоградская область     51°06′55″N   41°51′46″E
темп.,
°C
ветер,
м/с
пор.,
м/с
влажн.,
%
обл.,
%
осадки,
мм/ч
давл.,
гПа
погр.,
м
2 июля, сб
сб200:00+8ссз5118193 0.0 1015414
03:00+9ссз71477100 0.0 1014792
06:00+10ссз8157669 0.1 1014704
09:00+15с8127250 0.1 10141035
12:00+17с8127275 0.9 10141431
15:00+22с11155040 1.5 10122382
18:00+19ссв814685 1.1 10131312
21:00+17с614700 1.1 1014559
3 июля, вс
вс300:00+14ссз513791 0.0 1014298
03:00+12ссз412781 0.0 1014245
06:00+14ссз411735 0.0 1015295
09:00+20с57565 0.0 1014790
12:00+24с684652 0.0 10142204
15:00+22ссз4862100 0.0 1013298
18:00+21с376599 0.0 1014207
21:00+17сз117659 0.0 101411
4 июля, пн
пн400:00+15сз228310 0.0 101511
03:00+14сз33810 0.0 101535
06:00+16сз378111 0.0 1015194
09:00+22с576111 0.0 10161041
12:00+24ссв6744100 0.0 10161612
15:00+25ссв5640100 0.0 10161935
18:00+24ссв35505 0.0 10171781
21:00+18ссз22675 0.0 101711
5 июля, вт
вт500:00+16сз22685 0.0 101711
03:00+15ссз22735 0.0 101912
06:00+17ссз247141 0.0 1019130
09:00+21ссз2463100 0.0 1019322
12:00+25с34500 0.0 10191332
15:00+24всв2254100 0.0 101855
18:00+26з115492 0.0 1018177
21:00+20зюз11677 0.0 101811
6 июля, ср
ср600:00+18ююз117510 0.0 101911
03:00+19зюз1172100 0.0 101912
06:00+20з127194 0.0 101975
09:00+25сз225714 0.0 1019501
12:00+29зсз224157 0.0 10192313
15:00+28ссз0151100 0.0 1018111
18:00+27ююв004717 0.0 1018532
21:00+22ююв116110 0.0 101811